Regional Weather Roundup
Issued by NWS

Home | Current Version | Previous Version | Text Only | Print | Product List | Glossary Off
Versions: 1 2 3 4 5 6 7 8 9 10 11 12 13 14 15 16 17 18 19 20 21 22 23 24 25 26 27

000
ASUS45 KSLC 231410
RWRUT

UTAH REGIONAL WEATHER ROUNDUP
NATIONAL WEATHER SERVICE SALT LAKE CITY UT
700 AM MST MON JAN 23 2017

UTZ001>011-023>025-231500-

NORTHERN UTAH

CITY           SKY/WX    TMP DP  RH WIND       PRES   REMARKS
BRIGHAM CITY     N/A     38  32  80 S10       29.50F WCI  30
DUGWAY         MOCLDY    38  30  74 S10G16    29.49  WCI  31
HILL AFB       NOT AVBL
LOGAN          LGT SNOW  29  29 100 CALM      29.50F VSB 3/4
OGDEN          CLOUDY    38  30  73 S16       29.48F WCI  29
SALT LAKE CITY CLOUDY    38  31  76 SE17G28   29.50F WCI  28
TOOELE VALLEY  CLOUDY    43  32  65 S24G32    29.48S
WENDOVER       CLOUDY    28  25  86 CALM      29.47F
HEBER CITY     LGT SNOW  34  28  80 SE14G20   29.52S WCI  24
WEST JORDAN    CLOUDY    36  35  98 SE21G30   29.52S WCI  25

$$

UTZ011>015-024>027-231500-

CENTRAL/NORTHEAST UTAH

CITY           SKY/WX    TMP DP  RH WIND       PRES   REMARKS
PROVO AIRPORT  LGT RAIN  34  32  92 E7        29.58F WCI  28
MOAB/CANYONLAN MOCLDY    35  29  78 E8        29.67F WCI  29
DELTA          PTCLDY    36  32  87 S22G31    29.53F WCI  24
PRICE          LGT SNOW  28  28 100 NE6       29.64F FOG     WCI  22
ROOSEVELT      LGT SNOW  27  23  86 SW3       29.68S
VERNAL         LGT SNOW  27  26  96 NW5       29.65F FOG     WCI  22

$$

UTZ013>016-019>022-027-231500-

SOUTHERN UTAH

CITY           SKY/WX    TMP DP  RH WIND       PRES   REMARKS
BRYCE CANYON   LGT SNOW  28  25  88 SE20G36   29.64F FOG     WCI  15
CEDAR CITY     LGT RAIN  36  31  82 S29G37    29.54F WCI  23
MILFORD        FLURRIES  36  32  85 S24G32    29.53F WCI  24
ST GEORGE      CLOUDY    45  36  70 S12G17    29.66F
HANKSVILLE     PTCLDY    36  32  87 MISG      29.68F
BLANDING       CLOUDY    30  28  92 E6        29.90F WCI  24

$$

REGIONAL REPORTS     COLORADO/ARIZONA

CITY           SKY/WX    TMP DP  RH WIND       PRES   REMARKS
CRAIG, CO      CLOUDY    31  25  78 W10       29.66S WCI  22
GRAND JUNCTION CLOUDY    38  30  73 SE14      29.72S WCI  30
RIFLE, CO      FLURRIES  31  29  92 SE5       29.72F WCI  26
MONTROSE, CO   CLOUDY    31  26  82 VRB6      29.78R WCI  25
CORTEZ, CO     CLOUDY    33  27  78 W6        29.87F WCI  28
COLORADO CITY  PTSUNNY   36  34  93 SE7       29.71F WCI  30
PAGE, AZ       PTCLDY    41  29  62 S16G30    29.70F
GRAND CANYON   MIX PCPN  32  32 100 S20G30    29.77F WCI  20
KINGMAN, AZ    LGT RAIN  46  37  71 S28G39    29.76S
FLAGSTAFF, AZ  LGT SNOW  29  28  96 S20G26    29.83F FOG     WCI  16

$$

REGIONAL REPORTS    NEVADA/IDAHO/WYOMING

CITY           SKY/WX    TMP DP  RH WIND       PRES   REMARKS
LAS VEGAS, NV  MOCLDY    48  34  58 S12G18    29.70R
ELY, NY        MIX PCPN  32  25  75 S28G52    29.43R WCI  18
ELKO, NV       LGT SNOW  31  28  89 SW10      29.49R FOG     WCI  22
POCATELLO, ID  FLURRIES  30  27  88 N5        29.51F WCI  25
BURLEY, ID     LGT SNOW  32  29  88 NE13      29.46F FOG     WCI  22
FORT BRIDGER,  LGT SNOW  19  19 100 E8        29.58S WCI   9
EVANSTON, WY   LGT SNOW  22  18  85 E10       29.51F FOG     WCI  11
ROCK SPRINGS,  CLOUDY    25  18  74 S5        29.57F WCI  19

$$




USA.gov is the U.S. government's official web portal to all federal, state and local government web resources and services.